Regional Weather Roundup
Issued by NWS

Home | Current Version | Previous Version | Graphics & Text | Print | Product List | Glossary Off
Versions: 1 2 3 4 5 6 7 8 9 10 11 12 13 14 15 16 17 18 19 20 21 22 23 24 25 26 27 28 29 30 31 32 33 34 35 36 37 38 39 40 41 42 43 44 45 46 47 48 49 50

000
ASUS43 KMKX 280811
RWRWI

WISCONSIN REGIONAL WEATHER ROUNDUP
NATIONAL WEATHER SERVICE MILWAUKEE/SULLIVAN WI
200 AM CST SUN DEC 28 2014

NOTE: "FAIR" INDICATES FEW OR NO CLOUDS BELOW 12,000 FEET WITH NO
SIGNIFICANT WEATHER AND/OR OBSTRUCTIONS TO VISIBILITY.

WIZ001-002-006>008-014>016-023>028-280900-
NORTHWEST WISCONSIN

CITY           SKY/WX    TMP DP  RH WIND       PRES   REMARKS
SUPERIOR ARPT  CLOUDY    20  14  76 SW6       30.03S WCI  12
ASHLAND        CLOUDY    17  10  74 SW8       30.02R WCI   7
HAYWARD        CLOUDY    14  10  84 SW5       30.02S WCI   6
SIREN          CLOUDY    15  11  85 SW5       30.05S WCI   8
CUMBERLAND     CLOUDY    10   7  85 W6        30.03R WCI   1
RICE LAKE      CLOUDY    11   8  85 S3        30.05F
CHETEK         CLOUDY    10   7  87 MISG      30.06S
LADYSMITH      CLEAR      9   7  90 S6        30.04S WCI   0
EAU CLAIRE     CLOUDY    10   5  80 SW7       30.08F WCI  -1
MENOMONIE      CLOUDY     8   5  87 CALM      30.08F
NEW RICHMOND   CLOUDY    12   9  85 SW5       30.07S WCI   4
OSCEOLA        CLOUDY    14  10  86 CALM      30.10S
$$

WIZ003>005-009-010-017-018-280900-
NORTH CENTRAL WISCONSIN

CITY           SKY/WX    TMP DP  RH WIND       PRES   REMARKS
MANITOWISH WTR PTCLDY    10   8  92 SW6       29.96R WCI   0
ARBOR VITAE    CLEAR     14  11  87 W5        29.96S WCI   6
WOODRUFF       CLEAR     14  11  87 W5        29.96S WCI   6
RHINELANDER    PTCLDY     7   5  91 SW5       29.98R WCI  -2
EAGLE RIVER    PTCLDY     8   5  86 SW7       29.95S WCI  -3
LAND O LAKES   CLEAR     13  10  89 SW5       29.95R WCI   5
PHILLIPS       MOCLDY     9   7  92 SW3       29.99R
TOMAHAWK       CLEAR     10   8  89 CALM      30.00S
MEDFORD        CLEAR      8   6  88 W6        30.02R WCI  -2
MERRILL        CLEAR     10   8  91 W5        30.02S WCI   1
$$

WIZ029-030-035-036-043>047-280900-
CENTRAL WISCONSIN

CITY           SKY/WX    TMP DP  RH WIND       PRES   REMARKS
WAUSAU         CLEAR     13   9  84 W7        30.03S WCI   3
MOSINEE        PTCLDY    12  12 100 W8        30.04S WCI   1
MARSHFIELD     CLEAR     11   7  84 W9        30.05S WCI  -2
STEVENS POINT  CLEAR     15  11  83 W8        30.07R WCI   5
WAUPACA        CLEAR     22  17  81 W9        30.08R WCI  12
WAUTOMA        CLEAR     20  16  84 W10       30.10R WCI   9
WISC RAPIDS    CLEAR     16  10  77 W8        30.09R WCI   5
CAMP DOUGLAS   CLEAR     14  12  91 W7        30.10S WCI   4
$$

WIZ011>013-019>022-031-037>040-048>050-280900-
NORTHEAST WISCONSIN

CITY           SKY/WX    TMP DP  RH WIND       PRES   REMARKS
ANTIGO         MOCLDY    10   9  95 W6        30.00R WCI   0
SHAWANO        PTCLDY    22  17  83 W8        30.06S WCI  12
OCONTO         FAIR      21  18  85 W10       30.06R WCI  10
STURGEON BAY   CLEAR     25  18  74 W10       30.04R WCI  15
GREEN BAY      CLEAR     24  19  81 W10       30.06R WCI  14
MANITOWOC      CLEAR     24  20  84 NW14      30.06S WCI  12
APPLETON       CLEAR     21  19  93 W8        30.07R WCI  12
CLINTONVILLE   PTCLDY    21  18  86 W10       30.06S WCI  10
OSHKOSH        CLEAR     23  17  78 W7        30.07S WCI  15
$$

WIZ032>034-041-042-053>061-280900-
SOUTHWEST WISCONSIN

CITY           SKY/WX    TMP DP  RH WIND       PRES   REMARKS
LA CROSSE      CLEAR     15   9  76 S8        30.14S WCI   4
SPARTA         CLEAR     14  10  84 W3        30.14R
VIROQUA        CLEAR     15  14  97 W5        30.10R WCI   7
BOSCOBEL       CLEAR     17  10  74 SW5       30.16S WCI  10
PRAIRIE DU CHI CLEAR     19  13  78 W5        30.16S WCI  12
PLATTEVILLE    CLEAR     18  14  84 CALM      30.15R
$$

WIZ056-057-062-063-064-067-068-280900-
SOUTH CENTRAL WISCONSIN

CITY           SKY/WX    TMP DP  RH WIND       PRES   REMARKS
REEDSBURG      CLEAR     18  13  79 W6        30.11R WCI  10
BARABOO/DELLS  CLEAR     19  15  84 W5        30.10R WCI  12
LONE ROCK      CLEAR     22  14  71 W6        30.15R WCI  14
MINERAL POINT  CLEAR     21  14  73 W7        30.12R WCI  13
MADISON        CLEAR     22  16  78 W5        30.11R WCI  16
MIDDLETON      CLEAR     22  18  85 W10       30.12R WCI  11
WATERTOWN      CLEAR     24  20  85 W6        30.11R WCI  17
MONROE         CLEAR     21  19  93 W9        30.12R WCI  11
JANESVILLE     CLOUDY    27  21  80 NW6       30.13R WCI  20
$$

WIZ051-052-058>065-066-070>072-280900-
SOUTHEAST WISCONSIN

CITY           SKY/WX    TMP DP  RH WIND       PRES   REMARKS
MILWAUKEE      PTCLDY    28  19  69 NW14      30.09R WCI  17
WAUKESHA       CLEAR     25  19  80 W9        30.10R WCI  15
MILWAUKEE/TIMM CLEAR     27  19  74 W8        30.10R WCI  18
RACINE         CLEAR     28  19  69 W13G22    30.11R WCI  17
BURLINGTON     PTCLDY    25  19  78 W9        30.11R WCI  16
KENOSHA        PTCLDY    29  21  72 W12       30.10R WCI  19
FOND DU LAC    CLEAR     23  17  78 SW6       30.08S WCI  16
SHEBOYGAN      CLEAR     24  18  77 W12       30.07R WCI  13
WEST BEND      PTCLDY    25  19  80 W9G17     30.08R WCI  15
JUNEAU         CLEAR     22  18  85 W7        30.10R WCI  14
$$

LSZ147-162-280900-
LAKE SUPERIOR

STATION/POSITION TIME  TEMP    WIND        PRES    WAVE
                       AIR SEA DIR/SP/G            HT/PER
                 (UTC) (F)     (DEG/KT/KT) (MB)    (FT/S)
DEVILS ISLAND    0800   22     290/ 16/ 19 1017.2R
PORT WING        0700   24     270/ 13/ 19 1016.6S
SAXON HARBOR     0700   20     200/  8/ 14 1015.9F
$$

LMZ867-665-643>646-280900-
LAKE MICHIGAN

STATION/POSITION TIME  TEMP    WIND        PRES    WAVE
                       AIR SEA DIR/SP/G            HT/PER
                 (UTC) (F)     (DEG/KT/KT) (MB)    (FT/S)
CHAMBERS ISLAND  0700   25     230/  8/ 15 1016.6F
NORTHPORT PIER   0801   25     280/  8/ 16 1016.6R
SISTER BAY       0713          280/ 16/ 19   N/A
ALGOMA LAKESHORE 0600          320/ 10/ 17   N/A
KEWAUNEE LAKESHO 0700   26     280/ 10/ 15 1016.2S
SHEBOYGAN LAKESH 0800   26 38  270/ 10/ 12 1019.4R
PORT WASHINGTON  0740   27     290/  6/ 13 1019.3R
MILWAUKEE LAKESH 0700   29     290/ 13/ 19   N/A
KENOSHA   LAKESH 0800   30     280/  6/ 12 1019.3R
$$

TC  - TEMPERATURE IN CELSIUS
VSB - VISIBILITY IN STATUTE MILES
WCI - WIND CHILL INDEX
HX  - HEAT INDEX



USA.gov is the U.S. government's official web portal to all federal, state and local government web resources and services.